Overview Statistics Trail Chart Weather Telemetry Raw packets
 

This is the latest recevied weather packets stored in our database for station/object OK2ZAW-21. If no packets are shown the sender has not sent any weather packets the latest 10 day(s).

<< 34 35 36 37 38 39 40 >>
Time Temp. Humidity Pressure Rain* Wind** Luminosity Snow
1788447821 20° C 51% 1022.5 hPa - - 422 W/m² -
1788447510 20.56° C 50% 1022.3 hPa - - 422 W/m² -
1788447510 20.56° C 50% 1022.3 hPa - - 422 W/m² -
1788447199 20.56° C 49% 1022.4 hPa - - 422 W/m² -
1788446888 20.56° C 49% 1022.4 hPa - - 422 W/m² -
1788446576 20.56° C 51% 1022.5 hPa - - 422 W/m² -
1788446265 20° C 53% 1022 hPa - - 422 W/m² -
1788445953 20.56° C 52% 1022.6 hPa - - 423 W/m² -
1788445642 21.11° C 52% 1022.5 hPa - - 423 W/m² -
1788445331 21.11° C 52% 1022.4 hPa - - 423 W/m² -
1788445019 21.67° C 54% 1022.5 hPa - - 423 W/m² -
1788444707 22.78° C 52% 1022.6 hPa - - 423 W/m² -
1788444396 22.78° C 53% 1022.7 hPa - - 423 W/m² -
1788444092 21.67° C 55% 1022.8 hPa - - 423 W/m² -
1788443773 21.67° C 56% 1022.8 hPa - - 423 W/m² -
1788443462 20° C 58% 1022.2 hPa - - 423 W/m² -
1788443150 20° C 58% 1022.8 hPa - - 423 W/m² -
1788442839 20.56° C 58% 1022.8 hPa - - 423 W/m² -
1788442528 20° C 58% 1022.7 hPa - - 423 W/m² -
1788442216 20° C 58% 1022.6 hPa - - 424 W/m² -
1788441905 20.56° C 57% 1022.6 hPa - - 424 W/m² -
1788441594 20° C 57% 1022.7 hPa - - 424 W/m² -
1788440971 20.56° C 56% 1022.8 hPa - - 424 W/m² -
1788440660 20° C 57% 1022.7 hPa - - 424 W/m² -
1788440348 20.56° C 54% 1022.6 hPa - - 424 W/m² -

* Rain since midnight (hover to see other rain measurements)
** Current wind speed in m/s (hover to see current wind gust speed)